Вернуться в каталог

THOR BURNER 2 R/B

АктивенSSO
NORAD 4513·ROCKET BODY·🇺🇸 United States

Запущен Sep 3, 1970 с Vandenberg Space Force Base

Loading…

Ближайшие Пролёты (ближайшие 24 часа)

TLE

СвежийSource: Space-Track

Эпоха: Sep 14, 2026, 22:15 UTC

1 04513U 70070B   26257.92712268  .00000157  00000-0  70501-4 0  9996
2 04513  98.9798 232.7494 0065169 327.5559  32.1626 14.34842411922420

Отслеживайте THOR BURNER 2 R/B в реальном времени с AllMySat

Download on the App Store